Tacoma Narrows, WA
on Saturday, November 10, 2012

Saturday
Previous Day Next Day
Daily Summary
 ActualAverageRecord
Temperature
Mean Temperature °F °F  
Max Temperature 44°F 50°F 64°F (1997)
Min Temperature 30°F 41°F 30°F (2012)
Degree Days
Heating Degree Days 28    
Moisture
Dew Point 30°F   
Average Humidity 78    
Maximum Humidity 96    
Minimum Humidity 45    
Precipitation
Precipitation 0.00 in in in ()
Wind
Wind Speed 1 mph   
Max Wind Speed 7 mph   
Max Gust Speed mph   
Visibility 7 miles   
Events Fog   
Averages and records for this station are not official NWS values.
Key: T is trace of precipitation, MM is missing value
Source: NWS Daily Summary
Seasonal Weather Averages
Time(PST)TemperatureDew PointHumidity Pressure Visibility Wind DirectionWind SpeedGust SpeedPrecipitationEvents Conditions
12:53 AM 37.9°F 30.0°F 73% 29.97 in 10.0 miles Calm Calm - N/A   Clear
1:53 AM 37.0°F 30.9°F 79% 29.98 in 10.0 miles Calm Calm - N/A   Clear
2:53 AM 35.1°F 28.9°F 78% 29.99 in 10.0 miles Calm Calm - N/A   Clear
3:53 AM 34.0°F 28.9°F 82% 30.00 in 10.0 miles Calm Calm - N/A   Clear
4:53 AM 33.1°F 28.9°F 85% 30.02 in 10.0 miles Calm Calm - N/A   Clear
5:53 AM 33.1°F 30.9°F 92% 30.04 in 5.0 miles Calm Calm - N/A   Clear
6:53 AM 32.0°F 30.0°F 92% 30.05 in 2.0 miles Calm Calm - N/A   Partly Cloudy
7:00 AM 32.0°F 30.2°F 93% 30.04 in 1.5 miles Calm Calm - N/A   Scattered Clouds
7:09 AM 33.8°F 30.2°F 87% 30.04 in 2.5 miles Calm Calm - N/A   Mostly Cloudy
7:16 AM 30.2°F 28.4°F 93% 30.05 in 0.8 miles Calm Calm - N/A   Mostly Cloudy
7:23 AM 32.0°F 30.2°F 93% 30.05 in 0.8 miles Calm Calm - N/A   Overcast
7:29 AM 32.0°F 30.2°F 93% 30.06 in 0.2 miles Calm Calm - N/A Fog Fog
7:41 AM 33.8°F 32.0°F 93% 30.06 in 0.5 miles Calm Calm - N/A Fog Fog
7:46 AM 33.8°F 32.0°F 93% 30.06 in 2.0 miles Calm Calm - N/A   Overcast
7:53 AM 34.0°F 33.1°F 96% 30.07 in 3.0 miles ESE 3.5 mph - N/A   Overcast
8:53 AM 35.1°F 33.1°F 92% 30.09 in 5.0 miles South 4.6 mph - N/A   Overcast
9:53 AM 37.9°F 33.1°F 83% 30.11 in 10.0 miles Calm Calm - N/A   Scattered Clouds
10:53 AM 39.9°F 32.0°F 73% 30.12 in 10.0 miles Calm Calm - N/A   Clear
11:53 AM 41.0°F 30.9°F 67% 30.12 in 10.0 miles Variable 3.5 mph - N/A   Clear
12:53 PM 43.0°F 30.9°F 62% 30.14 in 10.0 miles SSW 3.5 mph - N/A   Clear
1:53 PM 44.1°F 26.1°F 49% 30.15 in 10.0 miles Variable 6.9 mph - N/A   Clear
2:53 PM 44.1°F 25.0°F 47% 30.14 in 10.0 miles NE 5.8 mph - N/A   Clear
3:53 PM 44.1°F 24.1°F 45% 30.17 in 10.0 miles NNE 3.5 mph - N/A   Clear
4:53 PM 39.9°F 25.0°F 55% 30.17 in 10.0 miles North 3.5 mph - N/A   Clear
5:53 PM 37.9°F 26.1°F 62% 30.19 in 10.0 miles Calm Calm - N/A   Clear
6:53 PM 37.0°F 25.0°F 62% 30.20 in 10.0 miles Calm Calm - N/A   Clear
7:53 PM 37.4°F 28.4°F 70% 30.19 in 10.0 miles Calm Calm - N/A   Clear
8:53 PM 37.9°F 32.0°F 79% 30.20 in 10.0 miles Calm Calm - N/A   Clear
9:53 PM 35.1°F 28.9°F 78% 30.22 in 10.0 miles Calm Calm - N/A   Clear
10:53 PM 37.0°F 32.0°F 82% 30.22 in 10.0 miles SE 3.5 mph - N/A   Clear
11:53 PM 36.0°F 30.0°F 79% 30.23 in 10.0 miles ESE 3.5 mph - N/A   Clear
Moon Phase
Nov. 10 Nov. 13 Nov. 20 Nov. 28 Dec. 06
Sunrise:07:07 AM (PST) Moon Rise:03:06 AM (PST)11/10
Sunset:04:40 PM (PST) Moon Set:02:41 PM (PST)11/10

Copyright © 2014 The Weather Underground, Inc.